Sioux Falls, SD

10:42 AM CST on December 09, 2019 (GMT -0600)
Foss

Weather History for KFSD - August, 2019

Change the Weather History Date:

Thursday, August 8, 2019

  Actual Average Record
Temperature  
Mean Temperature 70 °F 72 °F  
Max Temperature 80 °F 83 °F 100 °F (1995)
Min Temperature 60 °F 61 °F 44 °F (1932)
Degree Days  
Heating Degree Days 0 0  
Month to date heating degree days 0 0  
Since 1 June heating degree days 20 59  
Since 1 July heating degree days 0 8  
Cooling Degree Days 5 7  
Month to date cooling degree days 75 62  
Year to date cooling degree days 603 489  
Since 1 June cooling degree days 588 453  
Growing Degree Days 20 (Base 50)    
Moisture  
Dew Point 56 °F    
Average Humidity 62    
Maximum Humidity 84    
Minimum Humidity 39    
Precipitation  
Precipitation 0.00 in 0.09 in 2.02 in (1931)
Month to date precipitation 0.13 0.81  
Year to date precipitation 27.32 17.15  
Snow  
Snow 0.00 in 0.00 in 0.00 in ()
Month to date snowfall 0.0 0.0  
Since 1 June snowfall T 0.0  
Since 1 July snowfall T 0.0  
Snow Depth 0.00 in    
Sea Level Pressure  
Sea Level Pressure 29.97 in    
Wind  
Wind Speed 5 mph (NNE)    
Max Wind Speed 14 mph    
Max Gust Speed 18 mph    
Visibility 10 miles    
Events      
T = Trace of Precipitation, MM = Missing Value Source: NWS Daily Summary

Daily Weather History Graph

Daily Weather History Graph

Search for Another Location

Airport or City:

Astronomy

Aug. 08, 2019 Rise Set
Actual Time 6:23 AM CDT 8:40 PM CDT
Civil Twilight 5:51 AM CDT 9:12 PM CDT
Nautical Twilight 5:12 AM CDT 9:51 PM CDT
Astronomical Twilight 4:28 AM CDT 10:35 PM CDT
Moon 3:18 PM CDT (8/8) 12:47 AM CDT (8/8)
Length of Visible Light 15h 20m
Length of Day
14h 17m
First Quarter, 60% of the Moon is Illuminated
Aug 8
First Quarter
Aug 15
Full
Aug 23
Last Quarter
Aug 30
New
Sep 5
First Quarter

Hourly Weather History & Observations

Time (CDT) Temp. Heat Index Dew Point Humidity Pressure Visibility Wind Dir Wind Speed Gust Speed Precip Events Conditions
12:56 AM 70.0 °F - 63.0 °F 78% 29.92 in 10.0 mi NE 12.7 mph - N/A   Scattered Clouds
1:56 AM 66.9 °F - 60.1 °F 79% 29.93 in 10.0 mi NE 8.1 mph - N/A   Overcast
2:56 AM 66.0 °F - 59.0 °F 78% 29.94 in 10.0 mi NNE 9.2 mph - N/A   Mostly Cloudy
3:56 AM 64.0 °F - 57.9 °F 80% 29.94 in 10.0 mi NE 3.5 mph - N/A   Partly Cloudy
4:56 AM 63.0 °F - 57.9 °F 84% 29.96 in 10.0 mi NNE 3.5 mph - N/A   Mostly Cloudy
5:56 AM 62.1 °F - 57.0 °F 84% 29.95 in 10.0 mi NNE 6.9 mph - N/A   Scattered Clouds
6:56 AM 61.0 °F - 55.0 °F 81% 29.96 in 10.0 mi Calm Calm - N/A   Scattered Clouds
7:56 AM 64.0 °F - 55.9 °F 75% 29.98 in 10.0 mi North 4.6 mph - N/A   Partly Cloudy
8:56 AM 66.9 °F - 54.0 °F 63% 30.00 in 10.0 mi Calm Calm - N/A   Partly Cloudy
9:56 AM 71.1 °F - 54.0 °F 55% 30.01 in 10.0 mi East 4.6 mph - N/A   Partly Cloudy
10:56 AM 72.0 °F - 52.0 °F 49% 30.03 in 10.0 mi Calm Calm - N/A   Partly Cloudy
11:56 AM 73.9 °F - 54.0 °F 50% 30.01 in 10.0 mi Calm Calm - N/A   Partly Cloudy
12:56 PM 75.9 °F - 52.0 °F 43% 30.00 in 10.0 mi Calm Calm - N/A   Partly Cloudy
1:56 PM 78.1 °F - 54.0 °F 43% 30.00 in 10.0 mi North 6.9 mph - N/A   Partly Cloudy
2:56 PM 79.0 °F - 55.9 °F 45% 29.98 in 10.0 mi NNW 8.1 mph 17.3 mph N/A   Partly Cloudy
3:56 PM 80.1 °F 80.2 °F 55.9 °F 43% 29.97 in 10.0 mi North 10.4 mph - N/A   Partly Cloudy
4:56 PM 80.1 °F 80.4 °F 57.0 °F 45% 29.96 in 10.0 mi North 9.2 mph - N/A   Clear
5:56 PM 80.1 °F 80.0 °F 54.0 °F 40% 29.95 in 10.0 mi NNW 10.4 mph - N/A   Clear
6:56 PM 78.1 °F - 53.1 °F 42% 29.96 in 10.0 mi NW 8.1 mph - N/A   Partly Cloudy
7:56 PM 75.0 °F - 55.9 °F 51% 29.96 in 10.0 mi NNW 3.5 mph - N/A   Partly Cloudy
8:47 PM 71.1 °F - 55.0 °F 57% 29.99 in 10.0 mi Calm Calm - N/A   Scattered Clouds
8:56 PM 70.0 °F - 55.9 °F 61% 29.97 in 10.0 mi NNE 3.5 mph - N/A   Scattered Clouds
9:56 PM 64.9 °F - 57.0 °F 75% 29.99 in 10.0 mi North 4.6 mph - N/A   Scattered Clouds
10:56 PM 64.0 °F - 57.9 °F 80% 29.99 in 10.0 mi North 3.5 mph - N/A   Partly Cloudy
11:56 PM 64.9 °F - 57.9 °F 78% 29.99 in 10.0 mi Calm Calm - N/A   Scattered Clouds